CDT,Max TemperatureF,Mean TemperatureF,Min TemperatureF,Max Dew PointF,MeanDew PointF,Min DewpointF,Max Humidity, Mean Humidity, Min Humidity, Max Sea Level PressureIn, Mean Sea Level PressureIn, Min Sea Level PressureIn, Max VisibilityMiles, Mean VisibilityMiles, Min VisibilityMiles, Max Wind SpeedMPH, Mean Wind SpeedMPH, Max Gust SpeedMPH,PrecipitationIn, CloudCover, Events, WindDirDegrees
2013-3-1,29,26,24,30,22,18,100,84,74,30.23,30.16,30.08,10,9,3,18,11,18,0.00,8,Snow,10
2013-3-2,28,18,9,20,13,8,92,76,59,30.25,30.22,30.19,10,10,10,10,6,,0.00,2,,305
2013-3-3,30,16,3,17,11,0,99,72,45,30.19,30.11,30.04,10,10,3,7,2,,0.00,0,,149
2013-3-4,36,30,25,28,25,17,92,79,67,30.05,29.94,29.86,10,9,2,18,11,28,0.00,6,Snow,94
2013-3-5,32,30,27,31,28,24,100,91,83,30.12,29.92,29.86,10,5,0,23,11,29,0.09,8,Snow,317
2013-3-6,28,24,21,24,21,18,89,82,75,30.35,30.29,30.12,10,10,10,15,11,22,0.00,6,,315
2013-3-7,34,28,23,25,22,19,89,80,66,30.41,30.37,30.34,10,10,10,8,3,,0.00,4,,125
2013-3-8,41,32,23,32,28,22,94,80,64,30.41,30.33,30.19,10,10,7,13,7,18,0.00,0,,114
2013-3-9,45,40,34,39,36,32,98,88,76,30.19,29.96,29.77,10,8,1,13,8,18,0.31,8,Rain,124
2013-3-10,49,44,38,48,44,39,100,99,94,29.80,29.67,29.57,10,4,0,12,6,,0.72,8,Fog-Rain,167
2013-3-11,41,35,29,41,32,24,100,94,80,29.90,29.71,29.60,10,6,0,24,12,32,0.01,8,Fog-Rain-Snow,253
2013-3-12,37,30,24,31,25,18,98,83,71,30.14,30.01,29.91,10,9,1,24,14,32,0.00,5,Snow,266
2013-3-13,34,28,21,23,19,15,86,71,46,30.37,30.30,30.14,10,10,3,18,14,26,0.00,1,Snow,294
2013-3-14,47,34,23,33,26,20,100,75,50,30.35,30.20,30.06,10,10,10,14,4,20,0.00,3,,137
2013-3-15,50,39,28,39,34,28,100,83,59,30.05,29.86,29.67,10,8,3,9,4,,0.00,1,,92
2013-3-16,38,34,31,37,31,27,100,88,68,30.11,29.93,29.68,10,6,0,16,10,22,0.00,8,Fog-Rain-Snow,360
2013-3-17,36,32,27,28,25,21,90,76,65,30.16,30.06,29.88,10,10,10,18,10,23,0.00,7,,63
2013-3-18,38,30,24,34,27,15,99,85,64,29.93,29.78,29.69,10,8,2,31,13,40,0.00,7,Snow,295
2013-3-19,38,28,18,21,14,10,74,59,37,30.16,30.08,29.91,10,10,10,28,19,34,0.00,1,,282
2013-3-20,28,21,14,20,9,4,78,59,41,30.21,30.15,30.10,10,10,10,26,16,36,0.00,2,,293
2013-3-21,34,21,8,18,9,5,87,60,35,30.11,30.06,29.99,10,10,10,13,5,17,0.00,0,,322
2013-3-22,43,29,16,23,16,12,86,59,32,30.07,30.03,29.98,10,10,10,9,4,,0.00,1,,66
2013-3-23,46,36,25,31,22,18,99,59,33,30.09,30.03,29.96,10,10,0,18,7,20,0.01,4,Snow,41
2013-3-24,32,30,28,31,29,27,98,95,90,29.98,29.81,29.69,10,3,0,22,14,28,0.00,8,Snow,6
2013-3-25,34,31,28,27,25,22,94,79,68,30.15,29.96,29.80,10,10,4,17,12,23,0.00,6,Snow,317
2013-3-26,39,31,23,28,26,21,91,77,62,30.31,30.24,30.16,10,10,10,16,9,18,0.00,6,,290
2013-3-27,43,34,26,28,25,20,90,69,45,30.37,30.33,30.30,10,10,10,8,5,,0.00,4,,255
2013-3-28,51,36,22,31,26,21,99,67,38,30.36,30.32,30.26,10,10,10,8,2,,0.00,1,,148
2013-3-29,57,42,26,32,29,24,94,58,31,30.30,30.25,30.20,10,10,7,7,3,,0.00,1,,104
2013-3-30,56,45,35,44,37,30,94,72,50,30.20,30.03,29.88,10,10,4,20,8,26,0.00,4,Rain,162
2013-3-31,59,47,35,45,37,26,99,70,35,29.98,29.87,29.81,10,8,0,24,12,45,0.00,5,Fog,283